Flag for Hungary Weather past 2 weeks in Szeged, Hungary

Now
48 °F

Passing clouds.


Feels Like: 48 °F
Forecast: 52 / 76 °F
Wind: 1 mph from South

Location: Szeged

Current Time: Apr 26, 2015 at 4:57:28 AM

Latest Report: Apr 26, 2015 at 4:00 AM


Visibility: 19 mi

Pressure: 29.92 "Hg

Humidity: 80%

Dew point: 42 °F

Location of SzegedLocation

Historic Weather in Szeged — Graph

°F

Szeged temperature yesterday

Maximum temperature yesterday: 73 °F (at 4:00 PM)
Minimum temperature yesterday: 45 °F (at 6:00 AM)
Average temperature yesterday: 60 °F

Past Weeks' High & Low Weather Summary

 TemperatureHumidityPressure
High79 °F (Apr 16, 4:00 PM)94% (Apr 18, 2:00 AM)30.35 "Hg (Apr 18, 2:00 AM)
Low32 °F (Apr 19, 6:00 AM)19% (Apr 23, 4:00 PM)29.81 "Hg (Apr 17, 8:00 PM)
Average56 °F53%30.09 "Hg
* Reported Apr 11 3:00 AM — Apr 26 3:00 AM, Szeged, Weather by CustomWeather, © 2015

Note: Actual official high and low records may vary slightly from our data, if they occured in-between our weather recording intervals... More about our weather records

Advertising

Szeged weather history for previous 24 hours

 ConditionsComfort  
Time TempWeatherWind HumidityBarometerVisibility
3:00 AM
Sun, Apr 26
50 °FPassing clouds.3 mph81%29.92 "Hg19 mi
2:00 AM51 °FPassing clouds.2 mph82%29.93 "Hg19 mi
1:00 AM51 °FPassing clouds.2 mph82%29.94 "Hg19 mi
12:00 AM51 °FPassing clouds.1 mph79%29.94 "Hg19 mi
11:00 PM
Sat, Apr 25
54 °FPassing clouds.2 mph68%29.95 "Hg22 mi
10:00 PM58 °FClear.2 mph62%29.95 "Hg25 mi
9:00 PM61 °FPassing clouds.2 mph53%29.94 "Hg25 mi
8:00 PM64 °FPassing clouds.2 mph49%29.93 "Hg28 mi
7:00 PM69 °FPassing clouds.3 mph38%29.92 "Hg31 mi
6:00 PM72 °FPassing clouds.6 mph35%29.92 "Hg31 mi
5:00 PM73 °FPassing clouds.5 mph33%29.93 "Hg31 mi
4:00 PM73 °FPassing clouds.6 mph37%29.95 "Hg31 mi
3:00 PM72 °FPassing clouds.6 mph37%29.97 "Hg31 mi
2:00 PM71 °FPassing clouds.5 mph40%30.00 "Hg31 mi
1:00 PM71 °FPassing clouds.3 mph41%30.02 "Hg28 mi
12:00 PM69 °FPassing clouds.3 mph43%30.03 "Hg28 mi
11:00 AM66 °FPassing clouds.2 mph52%30.05 "Hg28 mi
10:00 AM64 °FSunny.2 mph59%30.06 "Hg28 mi
9:00 AM58 °FPassing clouds.2 mph69%30.06 "Hg25 mi
8:00 AM53 °FPassing clouds.2 mph81%30.05 "Hg19 mi
7:00 AM47 °FPassing clouds.1 mph86%30.05 "Hg19 mi
6:00 AM45 °FPassing clouds.2 mph87%30.04 "Hg12 mi
5:00 AM48 °FPassing clouds.1 mph81%30.03 "Hg19 mi
4:00 AM48 °FPassing clouds.2 mph80%30.03 "Hg19 mi
Weather by CustomWeather, © 2015

See weather overviewHow to use our weather pages